Theta_e
322 328 333 334 334 334 334 333 333 332 331 332 331 326 321 322 324 324 329 332 333 332 331 331 328 329 332 332 331 331 331 331 331 330 328 327 327 326 326 327 326 325 324 323 322 320 318 316 314 312 310 309 309 308 308 308 307 306 306 305 305 304 304 304 305 305 306 306 307 307 307 308 308 308 308 309 309 309 309 309 309 308 308 308 307
322 327 332 333 333 333 333 332 333 332 332 332 329 327 327 329 329 328 330 330 330 331 331 330 328 329 332 331 329 328 330 331 332 331 329 328 328 327 327 328 326 325 324 324 324 323 320 318 315 313 312 311 310 309 309 308 308 307 307 306 306 305 304 304 304 304 305 305 306 306 307 307 308 308 308 308 308 309 309 309 309 308 308 307 307
326 329 332 333 334 334 333 333 334 332 331 331 327 328 331 330 331 332 331 330 330 330 329 329 330 331 331 331 329 328 330 331 330 329 328 328 329 329 328 328 327 326 324 324 325 323 321 318 316 314 313 312 312 311 310 309 308 308 308 307 307 306 305 305 304 304 304 304 304 305 306 306 306 307 308 308 308 309 309 309 308 308 307 307 307
330 331 331 332 334 335 335 334 334 331 328 328 326 328 331 330 330 332 331 332 332 332 330 331 332 331 330 330 330 330 330 330 328 328 327 327 328 329 328 328 328 326 323 323 325 322 320 317 315 316 316 314 312 311 311 310 310 309 308 308 308 307 306 306 305 304 304 304 304 304 305 305 306 306 307 308 308 309 309 308 308 308 307 307 307
331 331 331 332 334 334 334 334 332 331 330 329 329 331 331 330 330 329 331 332 333 333 333 333 332 331 330 330 331 330 329 329 327 327 328 327 327 328 327 328 328 326 323 322 324 322 319 317 316 318 320 316 312 310 309 309 310 310 310 309 308 308 307 306 305 304 304 303 303 304 304 305 306 306 307 308 308 309 309 308 308 307 307 307 307
330 330 331 333 333 333 332 331 331 332 333 332 332 332 331 330 328 328 329 331 333 334 333 333 332 331 331 331 331 329 329 328 327 327 327 327 327 327 327 328 329 329 325 321 322 324 323 321 319 320 323 320 313 310 308 307 308 308 308 308 307 307 306 306 306 305 303 303 303 303 304 305 306 307 308 308 309 309 308 308 308 308 308 307 307
330 329 332 332 331 331 329 329 330 331 333 332 331 332 331 330 329 329 330 330 333 333 332 333 332 331 332 331 330 329 328 327 328 328 327 327 327 326 327 329 329 329 328 324 322 324 325 325 324 324 326 323 316 313 311 308 307 307 307 307 306 306 305 305 304 303 303 302 303 303 304 305 306 307 308 308 308 308 308 308 308 308 308 308 308
330 328 332 333 330 330 329 330 330 330 332 331 330 332 332 331 331 332 331 331 334 333 332 333 332 332 332 331 330 330 328 328 329 329 327 327 326 326 327 328 328 328 329 327 323 322 325 325 325 326 326 323 319 319 317 314 313 312 311 311 310 309 308 307 306 305 304 303 304 304 305 306 307 308 308 308 308 308 308 308 309 309 309 309 309
330 327 331 333 331 330 330 330 329 330 331 330 330 333 332 331 333 333 331 332 333 333 333 333 333 333 332 330 329 330 330 329 329 329 328 327 327 326 326 327 328 327 328 328 324 321 323 325 324 325 325 323 322 322 322 320 319 318 318 317 316 316 315 313 311 310 309 309 308 308 308 308 309 309 309 308 308 308 309 309 309 309 310 310 311
331 330 330 332 331 330 331 330 328 329 330 329 331 334 333 331 332 331 331 332 333 333 332 333 333 332 331 329 330 330 330 330 330 329 328 328 327 325 325 327 327 327 327 327 326 323 322 323 323 324 324 324 325 325 325 324 324 324 323 322 321 321 321 320 318 316 314 313 312 311 311 311 310 309 309 308 308 309 310 311 312 313 314 315 316
333 331 330 332 332 330 329 328 327 328 328 329 332 334 332 330 330 330 331 332 333 333 332 332 332 332 331 330 330 329 329 329 329 328 328 327 327 326 327 328 327 327 327 326 326 325 323 323 323 323 323 324 325 326 326 326 327 327 327 325 325 324 324 324 323 321 320 317 315 313 312 312 310 309 308 309 311 314 317 318 318 319 321 321 322
332 329 330 331 331 330 328 326 328 329 329 331 333 333 331 330 330 330 330 331 332 332 332 332 332 332 331 330 330 329 328 329 328 328 328 328 327 327 327 327 326 326 326 326 326 326 326 325 325 324 323 323 324 325 326 326 326 326 326 326 327 326 325 325 324 324 323 322 319 316 314 312 311 309 309 312 317 322 323 323 323 323 324 324 324
331 330 331 331 330 331 330 328 329 330 330 332 333 332 331 330 330 330 329 331 333 332 332 332 332 332 330 329 329 329 329 329 328 327 327 328 328 327 326 326 326 325 326 326 326 327 327 327 327 325 324 323 323 324 325 325 325 325 325 325 326 326 326 326 326 325 324 324 323 319 316 313 311 310 311 317 323 325 325 324 324 324 324 324 324
332 332 331 330 331 331 330 329 330 331 331 332 333 333 331 330 329 330 329 330 332 332 332 332 331 331 330 329 329 329 329 329 329 328 326 328 328 327 327 327 327 327 328 327 327 327 327 327 327 326 325 325 324 324 325 325 325 324 324 323 324 326 326 326 327 326 324 324 324 322 319 316 313 312 315 321 324 325 325 324 324 324 324 324 323
331 332 332 331 332 332 330 330 330 331 331 330 331 331 331 330 329 330 329 330 332 331 331 330 330 330 330 330 329 329 329 328 329 328 327 327 327 327 328 328 327 328 328 327 327 327 327 327 327 326 326 326 326 326 326 325 324 323 323 322 322 324 326 326 327 327 325 324 325 324 323 320 317 315 318 322 324 325 325 324 324 324 324 324 323
330 330 331 331 332 332 331 331 330 330 330 329 330 330 330 329 329 330 330 331 332 331 330 329 330 330 330 330 329 329 329 329 329 329 328 327 327 327 328 329 327 327 328 327 327 327 327 327 326 325 326 327 326 327 326 325 324 323 323 322 322 323 326 326 326 326 325 325 325 325 325 323 320 319 320 322 324 325 324 324 325 324 324 323 319
332 331 331 332 332 332 331 331 330 330 330 329 329 330 329 329 329 330 331 332 332 331 329 328 329 329 329 329 329 330 330 329 329 329 329 328 328 328 328 328 326 327 327 327 327 327 327 326 325 325 326 326 327 327 327 326 325 324 323 323 323 323 325 326 326 326 326 325 325 325 325 324 323 321 322 323 324 324 324 324 324 324 324 319 310
332 332 332 332 332 331 331 331 330 330 329 329 329 330 329 329 330 329 330 331 331 330 329 328 328 329 329 329 329 329 329 329 329 329 329 329 328 328 327 327 326 326 326 327 326 326 326 326 325 325 326 326 326 326 326 325 325 324 323 322 322 322 324 325 326 326 326 326 325 325 325 324 324 324 324 324 324 325 324 323 324 325 322 311 305
331 333 333 332 331 331 331 331 330 330 329 329 329 330 330 330 330 329 330 330 330 330 330 329 328 328 329 328 328 328 328 328 329 329 329 329 328 328 327 327 326 326 326 327 326 326 326 325 325 326 326 326 326 325 323 323 322 322 321 321 322 323 324 325 326 325 325 325 325 325 325 325 324 323 324 324 324 323 320 318 320 320 314 306 306
331 333 332 332 331 331 330 330 330 330 329 329 330 330 330 331 330 330 330 330 329 330 330 330 329 329 328 328 328 329 329 329 329 328 329 328 328 328 328 328 328 327 327 327 326 326 326 325 326 326 326 326 326 324 323 321 320 320 320 321 322 322 324 325 325 325 325 325 325 325 325 325 324 324 324 322 317 313 309 308 310 310 308 307 308
331 333 332 331 331 330 330 330 330 330 330 330 330 330 330 330 329 329 329 329 328 329 330 330 329 329 328 328 329 329 329 329 329 328 328 328 327 328 328 328 328 327 327 327 326 325 326 326 326 326 326 326 326 324 323 319 317 316 315 314 313 314 317 320 321 321 321 322 322 323 323 323 322 320 317 312 307 306 306 307 307 308 308 307 306
332 332 332 331 329 329 329 330 330 330 331 332 330 330 329 328 328 329 328 327 327 328 329 329 328 328 328 328 329 329 329 329 328 328 328 328 328 328 328 327 327 326 326 326 325 325 325 326 326 326 326 326 325 324 321 317 314 311 309 308 307 307 308 311 311 310 310 311 312 314 315 314 312 310 308 307 307 308 308 308 307 306 305 303 303
331 331 332 331 328 328 329 330 331 331 331 332 331 330 329 328 327 328 328 327 326 327 328 328 328 328 329 328 329 329 328 328 328 328 327 327 328 328 328 328 327 326 326 326 326 325 325 326 326 326 326 325 325 323 320 315 312 310 308 308 307 307 307 308 308 307 307 307 307 308 308 308 308 308 308 308 308 307 306 305 304 303 302 302 302
331 330 330 330 328 328 329 329 330 330 330 330 330 330 330 328 327 327 328 327 327 327 327 327 327 327 328 329 329 329 328 328 328 327 326 326 327 328 327 327 326 326 326 326 326 326 326 326 325 325 324 323 324 323 319 314 311 310 309 309 308 309 309 309 309 309 309 309 309 309 309 309 308 307 307 305 304 303 303 302 302 302 302 302 302
329 328 328 329 328 326 328 328 326 327 327 327 329 330 329 329 328 328 327 327 328 327 326 326 326 326 327 328 329 329 328 327 327 327 326 327 327 327 327 326 326 325 325 326 326 325 325 325 324 322 321 320 323 322 316 312 311 309 309 309 309 309 310 310 310 309 309 309 308 308 307 306 305 304 303 303 303 302 302 302 302 302 302 302 302
329 329 327 327 328 326 327 328 327 327 326 324 327 329 329 329 328 328 328 328 327 326 326 327 326 326 327 327 328 328 327 326 326 326 327 327 327 326 326 325 325 324 324 325 325 324 324 324 322 321 320 319 320 317 312 310 310 309 308 308 309 309 309 308 308 307 306 306 305 305 304 303 303 303 302 302 302 302 302 302 302 302 302 302 302
328 330 327 327 329 327 328 328 328 328 325 321 322 324 327 329 329 328 328 328 327 326 326 326 326 326 326 326 327 327 327 326 326 326 326 327 327 326 326 325 324 324 324 324 323 322 323 322 320 319 319 319 317 313 310 310 309 308 308 308 308 308 306 305 305 305 304 304 303 303 303 302 302 302 302 302 302 302 302 302 302 302 302 302 302
326 326 325 327 327 325 326 325 324 326 325 321 319 320 322 326 328 328 328 329 327 325 325 325 325 326 326 326 326 326 326 325 325 326 326 326 326 326 326 325 324 324 323 323 322 322 321 320 319 318 318 319 316 311 309 309 308 308 308 308 308 306 305 305 304 304 303 303 303 302 302 303 303 303 303 303 303 303 303 302 302 302 302 302 302
324 322 323 325 324 323 324 321 321 325 323 321 322 320 319 322 324 325 327 328 327 326 325 325 325 325 325 325 325 326 326 325 325 326 326 326 326 326 326 325 324 323 323 322 321 321 320 318 318 317 317 318 314 310 309 309 308 308 308 308 307 306 305 304 303 303 303 303 303 304 304 304 304 304 304 304 304 303 303 303 303 302 302 302 302
326 324 325 325 323 325 325 319 318 320 320 323 325 321 320 320 321 322 323 324 326 327 326 325 325 325 325 324 324 325 326 326 326 326 326 326 326 326 326 325 324 323 322 321 320 320 319 318 317 316 316 316 312 309 309 308 307 308 308 308 307 306 305 303 303 303 303 304 305 305 306 306 306 306 305 305 305 304 304 303 303 303 303 303 303
327 326 327 325 323 326 324 318 315 317 320 325 325 324 323 320 319 320 319 321 325 326 327 327 325 325 325 324 325 325 325 325 325 326 326 325 324 324 324 323 323 322 322 321 320 319 318 317 316 315 314 314 311 309 308 307 307 307 308 308 306 305 304 303 304 304 305 306 307 307 307 307 307 307 307 306 306 305 305 304 304 303 303 303 303
326 326 326 325 324 325 323 317 314 316 320 325 325 325 323 320 322 323 320 322 324 325 327 328 326 325 325 325 325 325 324 325 325 325 324 323 323 322 322 322 322 322 322 321 320 319 318 317 315 313 313 312 311 310 308 306 307 308 309 308 307 305 304 304 304 306 307 308 308 309 309 309 309 309 308 308 307 306 305 305 305 304 303 303 303
325 325 326 325 324 325 322 318 315 316 321 325 325 323 322 324 325 323 322 324 326 325 327 328 328 326 325 324 324 323 324 325 325 324 322 321 321 321 321 322 322 321 321 321 320 318 316 315 314 313 312 311 311 311 308 307 309 310 309 308 307 305 304 304 305 306 308 309 310 310 310 310 309 310 310 309 309 308 307 306 306 306 305 304 303
324 325 326 325 325 325 324 321 320 320 322 324 323 322 324 325 324 322 323 325 326 326 326 327 328 327 325 324 324 324 324 324 323 323 322 320 319 319 320 321 321 320 320 320 320 318 316 314 313 312 312 311 312 311 308 308 310 311 310 309 307 306 305 306 306 307 309 310 310 309 309 309 309 310 311 311 310 310 309 308 308 308 307 306 305
324 326 326 325 325 326 324 322 322 323 324 323 323 323 324 323 322 324 324 323 324 326 326 327 328 327 326 325 325 326 325 323 323 323 321 320 319 319 318 318 319 319 320 320 319 316 315 314 312 312 311 310 311 311 309 310 310 311 311 310 307 306 306 307 307 308 309 310 309 308 308 308 309 310 311 311 311 311 311 310 310 309 309 309 308
325 326 325 324 325 325 323 322 322 323 324 323 323 323 323 322 323 324 322 321 323 327 328 328 327 327 326 326 326 326 324 322 322 322 320 320 320 319 319 318 318 318 318 318 317 315 315 313 311 312 311 310 311 311 311 311 311 310 311 311 309 307 307 307 308 309 309 310 309 309 309 309 310 311 311 312 312 312 312 311 311 311 311 310 310
325 325 324 324 325 324 322 321 321 323 324 322 322 322 321 321 322 323 322 322 323 326 328 328 327 327 327 326 327 325 323 322 322 320 320 320 319 319 319 319 318 318 318 318 317 316 315 314 311 311 312 311 311 312 312 312 312 311 311 311 311 310 309 309 310 311 311 311 311 311 311 311 310 310 311 311 312 312 312 312 312 312 312 311 311
322 324 324 324 325 323 321 320 321 322 323 321 321 321 320 321 321 322 323 323 323 324 326 326 327 327 326 326 326 324 322 322 321 321 320 320 320 319 319 320 320 319 318 318 318 317 317 316 313 313 313 313 312 313 312 312 312 312 311 311 311 311 311 311 311 311 312 312 312 311 311 311 311 310 311 311 311 312 312 312 313 312 312 312 312
321 323 324 325 324 321 319 319 319 320 321 321 321 321 320 321 321 322 322 323 322 323 323 324 324 324 324 325 325 323 322 322 322 321 321 320 321 321 321 321 321 320 319 318 318 318 318 318 316 315 315 314 314 314 313 313 312 313 313 312 311 311 312 312 312 312 312 312 312 311 311 312 312 312 311 311 311 312 312 312 312 312 312 312 312
321 323 324 323 322 320 319 318 318 319 320 320 321 321 321 321 321 322 322 323 322 322 323 323 323 323 324 323 323 323 323 323 322 322 322 322 322 322 322 321 320 320 320 319 319 319 319 319 319 318 317 316 315 314 314 314 313 313 313 313 313 312 312 312 312 312 312 312 312 312 313 313 314 314 313 312 311 311 312 312 312 312 312 312 312
321 323 323 321 320 319 318 318 318 319 319 320 320 320 321 321 321 321 322 322 322 322 323 323 322 323 323 322 323 322 323 323 323 322 323 323 322 321 320 321 320 320 320 319 320 320 319 319 319 319 319 318 317 316 316 316 315 314 314 314 314 314 313 313 313 313 313 313 313 314 314 315 315 315 315 313 312 312 311 311 311 311 311 311 311
322 323 322 321 320 319 319 319 318 319 319 320 320 320 320 321 321 321 321 321 321 321 321 322 321 322 322 322 322 322 322 323 322 323 323 322 321 321 321 320 320 319 319 319 320 320 320 320 319 319 319 319 318 318 317 317 316 316 315 315 314 314 315 314 314 314 314 314 314 314 314 315 315 315 315 314 314 313 312 312 312 312 312 312 312
321 322 321 321 321 320 320 320 319 319 320 320 320 320 320 320 320 320 321 320 320 320 320 320 320 320 321 321 321 320 320 320 319 320 319 318 318 318 320 321 321 319 319 319 319 320 320 320 319 319 319 318 319 318 318 318 317 317 316 316 315 315 315 315 315 315 315 315 315 315 315 315 315 315 315 315 315 314 313 313 313 313 313 312 312
321 321 321 321 320 320 320 320 320 320 321 320 319 319 320 320 320 320 320 320 320 320 320 320 319 319 319 319 319 318 317 315 314 313 313 313 313 314 315 317 318 318 317 316 317 318 319 319 319 319 320 319 319 318 318 318 317 317 317 316 316 316 316 316 315 315 316 316 316 315 315 315 315 315 315 315 315 314 313 313 313 313 313 312 312
320 320 320 320 320 320 320 320 320 320 319 319 319 319 319 320 320 320 320 320 319 318 319 319 318 318 318 318 319 319 319 318 316 316 316 316 316 316 316 316 316 316 315 315 315 316 316 317 317 317 319 319 319 319 318 318 318 317 317 317 316 317 316 316 316 316 316 316 316 316 315 315 315 315 316 315 314 314 313 313 312 312 312 312 312
319 320 320 320 320 319 319 319 318 315 313 314 316 318 318 319 319 318 318 319 320 319 318 318 318 318 318 318 320 320 321 321 319 320 320 320 319 320 320 319 318 318 317 317 317 316 316 317 317 317 317 318 319 319 319 319 319 318 318 318 317 317 317 316 316 316 316 316 316 316 315 315 315 315 315 315 314 313 313 313 312 312 312 312 311
317 316 316 316 316 316 316 316 315 313 311 312 313 313 312 313 314 312 312 314 316 317 318 319 319 319 318 318 320 320 320 320 321 321 320 319 320 320 319 317 317 317 317 317 317 317 317 317 317 317 317 318 319 319 319 319 319 318 318 318 318 317 317 317 317 317 317 317 317 316 316 315 315 314 314 314 313 313 313 313 312 311 311 311 310
314 314 313 314 314 313 314 314 314 313 313 313 312 311 310 311 312 311 311 311 312 315 318 318 318 319 319 318 319 320 320 319 319 319 319 319 319 318 317 317 317 317 317 317 317 318 318 317 317 316 317 317 318 319 319 318 318 318 317 317 317 317 318 318 317 317 317 317 317 317 316 316 316 314 314 314 313 313 312 312 312 310 310 309 309
314 313 312 312 312 312 313 313 314 313 313 312 311 311 311 312 313 313 313 313 314 317 319 319 318 319 318 318 318 319 319 317 316 317 318 319 319 318 318 319 319 318 317 317 317 318 318 317 317 316 316 316 318 319 319 318 317 317 316 316 316 316 317 318 317 317 317 317 317 317 316 316 315 315 314 314 313 312 312 312 310 309 308 308 308
314 313 312 312 312 311 311 312 314 314 313 312 311 312 312 313 313 313 313 315 317 320 321 320 320 320 318 318 319 319 318 317 317 316 317 318 318 317 318 318 318 317 316 315 315 316 315 315 316 316 316 317 317 318 317 316 315 315 315 315 315 315 316 316 316 317 317 317 316 316 315 315 314 314 314 314 313 312 312 311 309 307 307 307 306
316 316 315 315 314 314 313 313 314 314 313 312 312 313 314 314 314 314 315 317 318 319 320 320 320 319 317 317 318 318 317 317 316 316 316 316 315 315 314 314 314 315 315 315 315 314 314 315 315 315 315 316 316 315 314 312 311 312 312 313 314 315 315 315 316 316 317 316 316 315 315 314 314 314 313 313 312 311 311 310 309 308 307 305 304
Wind_Speed
17 14 11 10 10 10 11 10 10 9 9 11 12 10 9 10 8 8 6 6 8 6 5 7 6 4 7 10 6 6 7 8 10 10 7 6 4 2 2 2 3 3 3 3 3 4 4 4 4 3 3 3 4 4 5 5 5 5 6 6 6 6 6 6 7 7 8 8 8 9 9 9 10 10 10 11 10 11 11 11 12 12 12 12 12
16 14 12 12 12 12 12 10 12 13 13 15 15 9 8 8 7 6 6 8 10 8 9 8 2 3 9 9 5 7 9 10 11 10 7 5 4 2 2 3 3 3 3 3 3 4 5 5 5 5 4 4 4 4 4 4 4 4 4 5 5 6 6 7 7 7 8 7 7 8 8 9 9 9 9 9 10 10 10 10 11 12 12 12 12
16 16 16 16 16 14 11 10 12 15 15 14 12 9 9 9 8 8 7 5 5 6 7 5 2 5 8 7 5 7 9 11 10 9 7 5 4 2 2 2 3 4 4 4 4 5 6 6 6 7 7 7 6 5 4 3 3 4 4 4 5 5 6 7 7 7 7 7 7 7 7 8 8 8 8 9 9 9 10 11 11 11 12 12 12
17 17 17 17 16 15 13 14 14 14 12 10 9 10 10 9 10 10 8 7 5 5 4 5 5 6 3 4 6 8 10 10 9 8 8 6 5 3 1 1 3 4 5 4 5 6 6 7 8 8 9 9 8 7 5 5 4 4 4 4 4 5 5 5 6 6 6 7 7 7 7 7 8 8 8 8 9 10 10 11 11 12 12 12 12
18 17 17 16 15 16 16 15 13 11 9 9 9 9 9 9 10 9 8 9 6 5 5 5 6 4 6 6 5 8 11 10 8 8 7 6 5 4 2 1 2 4 5 4 5 7 7 8 8 8 9 10 9 8 7 6 6 5 5 5 5 5 5 5 6 6 6 7 7 7 7 7 8 8 8 9 9 10 11 11 12 12 12 13 13
17 17 17 15 14 17 15 12 11 10 9 8 8 8 8 9 9 8 9 10 8 6 7 6 4 4 5 4 5 7 10 9 7 7 6 5 5 5 3 2 2 3 4 5 5 6 6 7 7 7 7 8 10 9 8 8 8 7 7 6 6 6 6 6 6 6 7 7 7 7 7 8 8 9 9 10 10 11 12 12 12 13 13 13 14
17 17 15 13 14 13 12 11 11 11 10 9 8 8 7 7 8 8 9 9 7 7 6 5 3 2 5 5 6 7 7 6 7 7 6 6 6 5 3 2 2 2 3 5 5 4 5 6 6 6 6 6 10 12 11 11 11 10 10 9 9 9 8 8 7 7 7 8 8 8 8 8 9 9 10 10 11 12 12 13 13 13 14 14 15
18 18 13 13 16 14 13 13 12 12 11 10 9 7 7 7 8 8 7 7 7 7 6 5 4 4 9 7 4 5 6 6 7 8 8 8 7 5 4 3 3 2 3 4 3 3 4 5 5 6 6 7 11 13 13 13 13 14 14 13 13 12 11 10 10 9 9 9 9 9 9 9 9 9 10 11 12 13 13 13 14 14 14 15 15
18 20 16 14 16 16 15 14 13 13 11 11 9 8 8 8 9 9 8 8 7 6 6 5 4 3 7 3 3 5 6 6 6 7 8 8 7 5 4 4 4 3 3 3 2 3 4 5 5 4 5 6 8 9 11 12 13 14 14 14 14 13 13 13 12 11 11 11 10 10 10 10 10 10 10 11 12 13 13 14 14 14 15 15 15
17 18 18 16 17 17 16 15 14 13 11 11 9 8 9 10 10 9 9 10 7 6 7 7 5 2 3 2 5 8 7 7 7 6 7 8 7 6 5 5 4 4 4 3 2 4 4 4 5 4 4 4 4 5 6 8 8 9 10 11 11 11 12 13 13 12 12 11 11 11 11 11 11 10 10 11 12 13 14 14 14 15 15 14 14
16 16 18 17 16 16 16 15 14 12 11 11 10 10 11 11 10 9 9 10 8 7 8 6 4 4 5 5 8 10 8 8 7 7 7 6 7 7 6 5 4 5 5 4 3 5 6 5 5 5 4 3 3 3 4 4 4 5 5 6 6 7 8 10 10 11 12 11 10 10 10 11 12 12 12 12 13 14 14 14 14 14 14 14 14
14 15 18 18 15 13 14 14 13 11 10 10 11 12 11 10 9 8 9 9 7 6 7 7 6 5 6 7 9 9 7 7 6 7 7 6 6 6 7 7 6 6 6 5 4 5 6 6 5 5 4 4 3 3 3 3 3 3 3 3 3 3 4 5 6 8 9 9 9 10 10 11 12 13 12 12 13 13 13 13 13 12 12 12 12
14 15 17 17 14 13 13 12 11 10 9 10 11 11 10 9 9 7 8 7 6 6 7 7 7 6 6 7 8 9 9 8 6 6 6 6 6 5 6 7 7 7 7 6 6 6 7 5 5 5 4 4 3 3 2 2 2 2 2 2 1 1 1 2 3 3 6 7 9 9 10 10 11 12 12 13 13 13 13 12 11 10 10 10 10
13 15 17 15 13 12 11 9 10 10 10 11 12 12 10 9 9 8 7 8 8 8 8 8 7 6 7 7 9 10 10 9 7 7 6 6 7 7 7 8 8 8 7 7 7 6 6 5 6 6 6 5 4 3 2 2 2 2 2 1 1 2 2 2 3 2 3 6 8 9 10 10 10 11 11 12 12 12 12 11 10 9 9 9 10
11 11 13 14 12 10 9 8 10 11 11 13 13 13 11 10 10 8 7 8 9 9 8 8 8 7 8 9 9 11 10 8 8 7 6 8 8 7 7 7 8 7 6 6 7 6 5 5 6 6 5 5 3 2 2 2 3 3 1 2 2 2 2 3 4 4 4 5 6 8 9 9 10 10 10 10 10 10 9 9 8 8 8 10 10
10 10 10 12 11 10 9 9 9 10 12 12 12 11 10 9 9 8 7 7 7 7 7 7 7 7 9 10 9 9 9 9 10 8 6 7 7 5 6 6 6 6 7 7 8 8 6 5 5 5 4 3 2 2 2 1 2 2 1 2 3 3 3 3 4 6 5 4 5 6 7 8 9 9 9 9 7 8 8 8 8 8 9 10 10
8 8 8 9 10 9 9 9 9 9 10 10 10 9 8 9 9 9 8 8 8 7 6 7 7 7 8 9 8 6 6 9 11 9 7 7 7 6 7 7 7 7 9 8 8 7 5 4 4 4 4 3 2 2 1 1 1 1 2 2 3 3 4 4 5 6 6 6 5 5 5 7 7 8 7 7 7 7 8 8 8 9 9 10 10
6 6 8 8 8 9 9 9 8 8 9 8 8 8 8 9 9 9 9 10 9 6 6 8 7 7 7 7 6 5 6 11 11 10 9 8 7 7 7 7 7 8 7 6 6 5 5 5 5 4 4 3 2 1 1 2 3 4 3 3 3 3 4 5 6 7 7 7 6 5 6 6 5 5 5 6 7 7 7 7 7 7 7 8 8
7 7 9 8 8 9 8 8 7 7 8 8 7 7 8 8 7 7 8 8 7 6 6 7 7 7 6 5 6 7 7 9 10 10 11 9 7 8 7 7 8 8 6 5 5 6 7 7 6 5 5 4 3 3 3 4 6 6 6 5 5 5 6 7 8 8 8 8 7 6 7 6 4 4 5 6 6 6 6 7 7 6 7 7 8
7 8 9 7 8 8 8 8 7 7 7 6 7 8 9 8 8 8 9 8 7 7 6 6 6 6 5 5 6 7 7 8 8 9 11 11 10 9 7 7 8 8 7 6 6 7 8 8 7 6 6 5 5 5 5 6 8 9 10 10 10 9 9 9 9 9 10 9 8 8 9 7 6 6 7 7 8 8 8 8 8 7 7 6 6
7 9 8 7 7 8 8 7 6 6 7 6 7 8 8 9 9 9 9 8 8 8 6 6 7 6 5 6 6 7 8 8 7 8 8 11 12 10 9 8 7 7 7 7 7 7 8 8 6 6 7 6 6 6 6 7 9 11 12 12 12 12 12 12 12 12 12 12 12 11 11 10 9 9 9 9 9 9 8 8 7 6 6 6 6
9 9 7 7 7 7 7 7 6 6 7 6 6 7 7 8 8 8 7 7 8 9 7 6 7 6 6 7 6 6 7 8 9 9 8 11 12 11 10 7 7 9 9 8 8 9 10 9 7 7 7 6 6 6 7 8 9 11 12 11 11 11 12 12 12 12 12 12 12 12 12 11 11 11 10 10 9 8 7 7 6 6 7 7 8
10 9 9 8 7 7 7 7 7 7 7 6 6 6 6 6 6 7 6 6 7 8 7 7 7 7 7 8 8 6 6 8 10 11 9 10 12 13 11 7 7 10 11 8 8 9 11 9 8 7 6 4 5 6 8 9 10 11 11 11 10 10 10 11 11 11 11 11 11 12 12 11 11 10 9 9 8 8 7 7 8 8 8 9 9
11 11 11 9 8 8 8 8 8 8 8 6 6 6 5 5 5 5 5 6 6 7 7 7 7 8 9 8 7 6 6 6 7 9 10 10 11 14 13 10 9 10 12 11 9 9 11 9 6 5 3 4 5 7 9 9 10 11 10 10 10 10 10 10 10 10 10 10 10 11 11 10 10 10 9 9 9 9 9 9 9 9 9 8 8
10 11 12 10 9 9 8 6 6 7 7 6 6 5 4 5 4 4 4 4 5 6 7 7 8 9 10 9 7 5 6 7 7 8 10 11 12 13 13 12 12 11 12 13 11 11 12 9 6 5 1 3 7 9 9 10 10 10 9 9 10 9 9 9 9 9 9 9 10 10 10 10 11 11 10 10 10 10 9 9 9 8 8 8 8
9 8 9 8 6 7 7 6 4 5 6 6 6 4 4 4 4 3 3 3 4 5 6 7 8 9 10 11 8 6 8 8 8 10 11 13 15 14 14 14 13 13 12 12 10 12 14 11 9 8 4 2 7 10 9 9 9 8 7 8 9 9 9 9 9 9 10 10 11 11 12 12 11 11 11 10 9 9 9 8 8 8 7 7 7
11 9 8 8 8 8 8 9 8 6 5 6 6 5 4 4 4 4 4 4 4 4 5 6 7 8 9 10 8 7 9 9 9 11 13 15 15 15 16 16 15 15 14 13 10 11 16 14 12 14 11 4 6 10 9 8 8 7 7 7 8 9 10 10 10 10 11 11 12 12 12 12 11 11 10 9 8 8 7 7 7 6 6 6 6
12 13 10 9 9 8 8 9 8 6 5 5 5 6 5 5 4 4 4 4 4 4 4 5 6 7 8 9 8 9 10 10 10 10 12 15 15 14 15 16 18 17 16 16 13 13 18 16 13 12 11 8 8 10 9 8 7 6 7 7 8 10 11 11 11 11 11 12 12 12 12 11 10 9 8 8 7 6 6 6 6 5 5 5 5
11 11 11 11 8 7 8 9 8 8 6 5 5 6 6 6 4 4 5 4 4 4 4 5 5 6 7 9 9 10 10 11 11 11 12 14 14 14 13 14 17 17 17 17 15 16 17 13 10 9 8 7 11 11 9 8 6 6 7 8 8 9 11 11 11 12 12 12 12 11 10 9 8 7 7 6 5 5 5 5 5 5 5 4 4
11 10 11 12 10 8 8 8 10 9 7 6 5 5 6 6 5 5 5 5 5 5 5 6 7 7 8 9 9 9 10 11 12 12 13 12 12 13 13 13 14 15 17 18 17 16 15 11 9 10 8 8 11 10 9 8 6 7 7 8 9 9 10 12 12 12 11 11 10 9 8 8 7 6 5 5 5 5 4 4 5 4 4 4 3
13 12 12 12 12 10 7 6 10 10 8 7 5 5 6 6 5 5 5 6 6 5 5 5 6 8 9 10 9 10 10 11 13 14 13 11 11 10 10 10 12 15 16 17 17 15 13 13 13 11 7 8 11 10 9 8 7 7 8 8 9 9 10 12 12 11 10 9 8 8 7 6 5 5 4 4 3 3 3 3 4 3 3 3 3
14 13 12 11 11 9 5 6 10 9 8 8 5 6 6 5 5 4 4 5 5 5 7 6 5 8 9 10 10 10 11 13 14 14 13 11 9 8 9 10 12 16 17 16 16 14 12 14 15 12 7 8 11 10 8 8 7 7 9 8 9 10 11 12 11 10 9 9 7 6 6 5 4 3 2 2 1 1 2 2 2 2 2 2 2
14 13 12 10 9 8 4 5 8 8 9 8 6 6 7 6 5 3 4 6 4 4 8 8 6 8 9 10 11 10 11 14 15 15 12 9 8 8 9 11 11 13 16 16 16 15 13 13 12 11 9 11 13 11 7 8 8 7 9 10 10 11 11 11 11 11 10 9 8 6 5 3 2 2 2 1 1 1 0 1 1 2 2 2 3
15 14 12 10 9 7 4 5 7 8 9 8 7 8 8 6 5 4 4 6 6 5 7 9 8 8 9 10 13 12 11 13 15 14 12 10 10 9 8 10 9 11 14 16 16 16 15 13 11 11 11 13 14 13 8 7 7 6 8 11 11 12 12 12 11 11 11 10 8 6 4 4 4 5 4 4 3 2 2 2 3 3 4 4 5
15 13 11 10 10 8 6 6 7 8 9 8 8 8 7 7 7 5 4 5 7 7 7 9 8 8 9 11 13 13 12 14 13 11 13 12 10 9 8 8 8 8 13 17 15 13 13 13 13 13 13 12 13 13 10 7 7 7 8 9 12 13 13 13 13 12 12 11 9 6 6 7 7 7 6 5 5 5 5 5 5 6 6 7 8
14 12 10 10 10 8 8 7 7 9 9 9 9 8 7 8 7 6 3 2 6 8 8 9 8 8 10 12 12 12 13 14 11 10 12 9 7 9 8 8 9 8 10 13 10 6 7 11 14 14 13 12 14 14 13 10 9 9 9 9 10 12 14 14 14 13 12 12 10 9 10 11 10 10 9 8 8 7 7 8 8 9 9 10 10
13 11 11 11 10 9 8 7 8 9 8 8 9 7 7 8 7 6 5 3 5 8 9 9 8 9 11 12 12 13 14 12 10 10 9 5 6 10 8 7 9 8 8 10 6 4 7 10 11 12 13 11 12 14 16 14 10 9 11 13 12 11 12 14 14 13 13 12 13 14 15 14 13 12 12 11 10 10 10 10 10 11 11 11 12
13 12 12 12 10 9 8 8 8 9 8 8 8 7 7 8 7 7 7 5 5 6 7 9 8 8 10 10 12 15 14 11 10 10 8 4 6 9 7 5 7 7 7 9 9 7 8 9 7 8 12 11 9 11 15 17 14 9 10 14 16 15 12 11 13 17 18 17 17 18 18 18 17 16 15 14 14 13 12 12 13 13 12 13 13
14 13 13 11 10 8 8 7 7 8 8 7 8 7 7 7 8 8 8 8 6 6 6 7 8 9 9 9 12 13 12 11 11 10 8 7 7 7 6 6 5 4 5 8 9 7 6 7 7 8 11 13 11 10 12 16 16 12 9 12 16 19 17 13 13 18 20 21 21 21 21 21 19 18 18 18 17 16 15 14 15 15 15 15 14
14 13 12 12 11 9 8 8 7 8 9 9 9 8 7 7 8 8 9 9 8 8 7 6 7 9 9 8 10 11 11 10 11 11 9 9 8 6 5 5 4 2 3 4 5 6 6 7 9 10 11 13 14 13 11 14 17 15 13 13 15 17 20 19 18 20 21 22 23 23 22 21 19 18 19 21 21 19 18 18 18 18 18 17 15
15 12 11 12 11 10 10 9 9 11 12 11 11 10 9 9 8 8 9 8 8 9 9 8 8 8 7 8 8 9 9 9 9 10 10 8 8 7 6 7 6 4 5 5 5 6 7 8 10 10 11 13 15 14 13 14 17 17 17 17 16 16 18 20 21 22 23 23 24 25 24 22 20 20 20 22 23 22 20 20 20 20 18 17 15
15 12 12 12 10 10 11 10 12 13 12 12 12 11 11 11 10 9 8 7 7 8 7 7 9 8 6 8 8 7 8 8 8 9 9 8 9 9 8 9 9 8 8 8 7 7 7 9 10 9 11 13 14 15 15 15 15 16 17 18 18 18 18 19 20 23 24 25 27 28 26 23 22 23 23 21 21 20 20 20 19 19 17 17 16
14 13 13 12 10 10 11 12 13 13 12 13 14 12 11 11 11 10 9 7 6 6 5 5 7 6 5 5 6 8 10 10 10 11 10 9 10 11 10 10 10 9 9 9 9 9 7 8 9 9 11 12 12 14 17 17 18 19 20 19 18 18 19 19 19 21 22 24 26 27 27 26 26 27 28 27 24 23 22 21 19 18 18 18 18
17 16 16 15 13 13 14 14 13 12 11 12 14 13 12 12 11 10 10 9 7 6 3 3 4 3 3 4 6 7 7 8 8 9 9 8 9 9 10 11 12 12 11 10 11 11 10 10 10 10 11 11 11 12 14 16 19 22 22 21 20 20 21 21 21 22 21 21 23 26 28 28 26 26 28 30 30 27 24 21 20 20 21 21 21
19 18 18 17 15 14 13 12 11 10 9 11 14 14 12 11 10 10 10 8 8 6 3 2 3 3 4 5 7 6 4 4 5 4 5 7 8 8 9 11 12 13 14 13 13 14 14 14 15 15 13 13 13 14 14 15 16 18 19 20 21 23 24 25 26 27 26 24 23 25 27 27 27 27 28 29 29 27 23 21 21 22 23 24 23
18 17 16 15 13 11 9 9 7 6 7 9 12 14 14 11 9 9 8 6 7 7 5 6 7 8 9 9 9 10 10 8 6 5 6 8 9 9 9 9 11 13 14 15 15 16 17 17 18 19 18 16 17 18 18 17 16 17 18 19 21 22 24 25 25 26 27 28 27 26 25 26 28 28 26 26 26 25 24 23 23 23 22 23 24
17 15 13 12 11 7 6 6 5 5 7 7 7 9 10 8 5 6 4 5 7 8 7 7 8 10 13 13 11 10 11 10 8 8 10 11 12 11 12 13 14 15 16 17 18 19 20 20 20 21 21 20 20 21 21 21 20 21 22 22 22 23 24 25 26 27 28 29 29 28 27 27 28 26 24 25 25 24 25 25 24 22 21 21 23
17 14 10 7 6 4 3 3 2 3 4 4 3 5 6 4 4 6 8 11 10 9 9 11 12 12 13 15 15 12 10 9 8 8 10 11 12 13 14 16 15 16 17 18 18 20 20 20 21 22 23 22 21 22 22 23 23 24 25 25 25 26 26 27 28 29 30 30 30 30 30 31 31 29 28 30 29 25 26 26 23 20 20 21 24
14 11 7 5 5 5 5 5 5 4 3 3 4 6 8 9 10 11 14 15 10 8 10 12 13 13 11 12 14 13 12 13 12 12 11 11 13 15 16 17 17 17 18 19 19 20 21 22 21 21 22 22 22 22 23 24 25 25 26 27 27 27 27 28 30 31 31 30 29 28 28 29 29 28 30 32 29 25 26 26 22 17 17 20 23
12 12 13 14 15 15 14 14 12 10 8 9 10 11 12 14 15 16 17 15 11 10 11 12 12 12 11 10 9 10 11 13 15 15 16 16 16 17 16 17 17 16 17 18 18 18 19 19 19 19 20 21 21 22 23 23 23 23 24 26 26 26 27 28 30 30 28 28 28 25 25 26 25 24 27 30 29 28 28 27 23 18 17 20 23
9 10 13 15 16 17 17 18 18 16 15 14 14 14 13 13 14 15 15 15 13 11 10 10 10 10 9 8 9 11 13 14 15 16 17 17 16 14 13 14 13 12 13 14 14 13 14 15 16 17 19 19 20 21 21 21 20 19 20 22 22 23 25 27 28 26 25 27 28 25 25 26 26 25 26 28 30 31 30 29 28 26 23 22 21
Wind_Direction
189 185 191 195 197 194 197 196 176 174 151 161 216 223 184 180 183 177 172 200 208 218 219 222 242 213 229 243 199 190 209 204 223 237 237 229 216 169 120 93 74 68 60 58 58 62 68 64 65 66 62 59 58 62 64 68 70 70 69 65 63 63 65 65 67 71 74 75 73 74 76 76 75 73 73 72 70 68 66 65 64 63 65 66 66
193 185 186 194 199 199 203 193 168 183 185 184 204 197 170 174 174 182 188 211 205 197 215 219 250 222 231 244 198 193 204 194 208 226 238 238 224 198 119 86 59 56 54 59 60 65 72 69 69 65 60 59 56 59 64 70 72 69 68 64 63 61 61 62 65 70 73 75 74 75 76 76 76 74 73 72 69 67 66 65 66 66 67 69 70
196 189 190 194 195 194 192 182 176 190 190 187 194 175 172 176 172 192 196 206 202 201 217 199 217 240 223 224 182 169 189 190 190 207 226 231 226 214 140 91 55 50 46 55 64 71 78 78 80 77 72 67 63 65 71 74 74 70 70 68 67 64 65 67 69 71 75 76 75 76 76 76 76 76 76 74 73 69 67 67 67 68 70 72 73
198 194 197 198 189 182 184 191 197 199 187 181 182 169 175 180 178 191 192 188 191 207 198 165 223 248 180 164 161 166 188 182 171 197 219 225 226 221 187 88 68 64 53 59 74 82 87 90 94 92 82 72 69 70 78 87 89 88 87 84 82 78 75 72 71 72 73 75 77 78 80 81 81 82 82 79 76 73 71 71 71 71 73 75 75
200 199 202 207 193 185 190 195 197 192 182 179 179 180 186 193 194 195 198 196 189 196 191 190 225 201 127 116 119 161 177 164 162 195 216 223 225 228 234 216 94 79 69 72 91 94 95 101 105 101 87 74 71 73 82 95 101 104 102 98 94 88 82 76 74 73 73 75 79 83 84 86 87 85 83 79 76 73 73 73 73 74 75 77 76
202 204 212 220 202 193 194 191 191 186 182 183 184 190 195 198 198 196 202 202 195 200 197 204 217 153 131 104 111 151 162 159 166 180 203 223 228 228 219 190 133 98 86 85 99 103 97 104 106 97 83 72 73 75 82 92 98 102 101 99 95 90 89 85 84 82 82 82 81 85 86 87 86 83 79 76 74 72 72 73 74 75 76 77 76
203 207 214 215 205 201 198 194 199 196 189 189 191 193 201 200 192 192 199 193 192 201 185 189 223 99 92 96 115 135 139 155 174 178 202 222 225 219 205 189 171 140 104 89 98 108 97 98 97 88 81 80 81 80 82 88 92 94 92 92 90 89 89 88 89 87 88 88 85 85 83 83 82 80 78 76 75 74 74 75 76 77 77 77 76
203 206 204 199 203 202 197 198 201 200 192 188 192 193 203 199 182 189 196 180 180 188 171 189 233 94 99 109 110 118 129 152 180 190 202 212 212 208 207 197 185 181 127 97 96 116 115 103 97 95 100 103 94 84 82 84 87 88 87 86 85 85 84 83 85 85 86 87 86 85 82 81 80 78 78 76 76 77 77 78 78 78 77 77 76
200 202 199 195 202 201 198 202 202 203 197 186 189 193 206 205 188 192 194 181 185 191 174 189 222 107 102 129 127 121 134 150 176 195 201 205 206 205 214 197 188 189 140 121 106 113 128 116 105 108 116 120 107 90 83 83 84 85 84 85 85 85 84 80 79 80 82 84 84 85 84 83 80 79 80 79 80 80 81 81 80 79 78 77 75
191 196 199 197 201 201 199 201 201 207 204 186 185 195 211 216 201 197 189 180 186 188 177 190 212 170 128 153 141 140 152 166 180 198 197 198 202 198 198 193 187 176 152 153 121 101 116 118 113 115 120 132 125 107 96 90 88 85 83 85 87 86 85 81 79 80 81 84 87 88 87 86 83 82 82 83 85 85 85 84 83 82 80 79 76
183 192 199 200 204 205 200 199 202 211 207 188 185 199 213 215 203 198 189 183 191 187 175 182 185 153 139 128 135 140 150 169 178 186 185 186 190 182 176 181 177 168 164 158 132 114 114 116 115 114 121 136 131 122 116 107 101 91 82 84 85 81 84 86 84 80 77 79 84 86 90 91 90 88 87 89 91 90 89 87 87 86 85 83 80
190 197 199 200 203 204 198 196 202 210 206 191 190 203 214 213 202 196 192 183 180 179 173 172 161 146 137 120 125 130 140 159 162 166 173 170 174 171 170 176 175 171 162 147 144 134 126 126 128 124 128 139 136 131 118 111 108 93 82 91 91 76 84 93 86 79 75 76 80 85 90 92 94 97 98 98 96 93 90 89 89 88 86 82 77
202 198 198 201 201 198 197 199 204 206 202 192 195 206 213 213 204 195 194 182 165 168 172 171 159 143 141 132 125 123 133 143 139 150 164 163 168 174 175 177 178 178 169 159 157 145 139 140 135 133 131 129 134 140 130 126 127 104 91 96 106 128 138 130 113 89 81 84 82 83 87 89 94 101 105 106 102 98 93 89 88 85 81 74 65
208 193 191 200 203 202 203 208 207 202 198 196 199 206 210 212 205 195 188 178 174 183 183 180 170 146 139 138 130 125 129 133 128 136 152 155 162 173 183 182 175 179 175 165 160 152 149 142 130 130 123 116 118 136 144 155 150 137 128 137 184 180 185 180 171 153 112 103 91 85 89 92 97 102 104 106 104 100 95 90 85 80 73 65 59
208 196 193 199 204 208 209 210 209 204 202 205 208 210 212 209 202 196 183 173 182 195 196 189 174 147 134 132 134 134 131 131 125 125 146 156 161 171 178 178 171 172 168 162 165 158 147 141 137 131 116 109 113 134 149 171 177 171 177 209 197 189 192 183 180 174 153 130 110 97 95 96 102 107 108 109 105 95 87 82 76 67 65 63 59
202 198 207 207 202 205 208 207 210 208 204 210 219 218 217 208 197 190 177 178 190 194 198 200 182 154 142 133 135 136 134 139 131 122 137 154 166 166 148 148 152 154 151 155 164 158 145 140 141 136 132 137 145 155 158 189 210 197 207 216 191 177 168 165 178 177 166 151 135 118 107 103 104 107 110 108 99 85 78 71 65 67 69 62 55
194 185 207 215 202 201 209 207 205 206 201 206 214 214 212 204 197 190 179 185 197 193 195 201 192 174 154 137 136 140 146 149 134 119 125 141 158 155 143 145 146 145 140 141 154 157 147 134 131 135 139 146 150 146 152 152 179 164 164 176 167 158 159 161 173 174 166 154 144 132 126 116 104 104 105 100 93 87 79 69 69 74 70 58 54
175 177 211 218 202 194 200 200 196 197 193 192 198 200 197 194 194 194 191 194 196 194 192 189 187 182 159 137 136 139 155 157 140 125 125 131 146 148 153 158 157 163 157 149 156 154 146 138 134 139 137 135 136 120 129 130 124 133 138 141 143 146 152 151 158 164 160 152 143 134 135 125 107 108 105 97 99 95 82 74 82 83 67 60 67
161 183 211 214 201 191 187 185 185 191 187 185 188 183 176 182 189 189 194 200 193 186 182 174 181 184 160 140 135 121 139 160 152 144 141 139 142 139 146 154 152 163 166 161 156 143 141 137 132 137 138 138 139 125 120 120 116 116 116 111 110 120 133 138 144 150 151 152 148 139 138 133 122 122 111 104 110 109 95 89 95 93 78 76 78
164 191 208 205 197 188 182 180 179 179 177 181 185 178 174 182 189 188 192 199 189 181 172 158 174 187 170 155 134 114 142 172 167 158 153 149 146 138 141 150 148 149 148 141 137 135 132 125 127 139 141 140 133 121 112 115 116 112 107 104 102 102 111 121 127 131 135 138 135 133 135 132 128 126 120 117 115 110 103 97 97 95 89 84 78
177 196 200 197 192 179 174 180 177 170 175 180 178 185 193 193 197 203 205 206 196 190 184 169 176 181 167 156 128 120 158 178 168 166 161 152 154 158 157 157 157 150 142 134 130 131 125 120 134 150 148 144 126 116 120 126 125 119 112 107 104 102 105 111 116 119 122 125 127 129 132 130 127 124 122 118 112 107 104 102 100 96 90 83 75
188 188 184 192 196 177 167 173 168 162 173 177 173 186 198 195 203 216 221 215 200 197 196 182 182 179 160 156 149 152 170 171 165 172 173 158 157 164 165 167 162 145 137 135 129 127 124 130 149 154 150 144 119 117 133 138 134 125 119 113 110 109 111 114 117 118 119 122 125 127 128 128 127 123 120 117 114 111 110 105 101 94 88 84 80
184 176 176 191 194 173 166 172 163 156 169 182 188 193 191 189 201 211 218 214 199 201 200 184 183 182 167 162 168 179 182 171 167 170 175 172 163 160 163 166 153 137 131 129 128 128 131 143 157 152 149 145 129 133 141 142 137 129 124 120 118 116 117 119 118 120 122 124 127 128 128 128 126 124 121 119 116 112 108 103 98 94 90 88 87
180 178 176 186 190 171 167 177 174 170 176 184 186 186 176 171 185 198 207 209 199 202 202 191 186 182 179 175 176 187 183 172 169 167 172 176 165 156 156 152 142 134 130 133 133 126 128 138 143 130 134 149 148 147 146 146 139 130 129 127 125 124 122 122 122 125 130 132 134 132 131 129 125 124 120 117 115 110 106 102 97 94 92 89 88
183 188 183 186 190 174 166 177 182 180 179 173 166 165 160 151 155 181 193 203 201 196 201 205 195 187 189 189 187 195 190 179 166 162 165 162 152 149 150 147 142 134 133 140 139 129 128 127 108 96 100 145 152 153 148 148 143 134 135 133 132 134 131 133 135 138 141 139 136 133 130 128 124 123 119 116 114 109 105 101 97 92 89 86 83
176 191 192 180 172 160 154 151 149 164 173 170 162 158 159 148 145 168 178 187 200 195 199 205 198 193 196 197 199 198 191 184 170 163 161 154 150 153 152 149 146 144 146 148 143 136 136 129 121 146 181 130 139 154 151 150 146 138 143 145 142 141 139 140 141 140 140 135 132 130 128 127 124 121 119 115 110 106 102 97 94 90 86 84 81
179 189 184 164 168 162 155 162 164 165 176 177 171 169 165 149 151 168 170 171 185 192 195 199 200 198 197 198 199 187 176 175 169 163 157 152 153 160 160 153 150 154 156 152 144 128 127 134 150 175 200 207 150 157 154 153 153 147 150 154 150 144 138 138 137 136 136 134 132 130 128 124 121 117 111 107 103 99 99 96 96 94 90 89 85
188 195 183 176 190 180 174 190 184 169 182 184 173 172 164 154 160 162 165 177 174 172 184 189 191 190 190 190 187 181 174 169 167 166 163 159 159 165 165 158 155 159 160 157 154 138 136 150 169 188 220 223 174 164 161 160 162 160 159 160 155 145 139 139 140 140 138 136 133 128 123 117 111 108 103 100 100 99 100 100 99 98 94 92 90
188 193 183 181 184 175 191 199 181 176 184 173 166 170 161 162 168 156 163 179 160 155 171 173 176 182 185 186 185 180 172 167 168 168 165 162 163 169 171 164 159 160 158 155 156 154 154 166 180 195 224 204 168 166 168 167 170 169 163 159 157 150 145 145 145 144 141 135 130 122 116 111 106 105 104 104 107 105 102 99 95 95 93 91 90
182 180 176 174 159 165 200 189 172 181 173 153 163 160 152 168 178 162 166 175 167 167 168 164 167 173 177 182 185 179 171 169 165 161 163 164 163 168 171 168 164 163 161 156 156 161 166 177 196 208 208 178 173 177 173 173 178 175 168 161 160 158 153 153 151 147 142 134 128 121 116 115 112 114 115 118 120 113 106 99 94 94 92 92 92
183 177 172 171 162 173 205 175 161 172 157 144 150 145 150 174 177 167 169 172 172 166 160 166 166 163 170 174 174 173 169 164 159 157 162 158 146 149 159 168 174 174 167 160 163 173 184 186 189 205 204 180 187 188 176 182 188 180 176 168 168 169 164 160 156 151 145 138 135 131 130 131 129 131 132 129 130 122 115 104 94 92 89 90 88
180 175 168 170 166 171 192 156 154 163 150 136 140 144 135 123 131 152 164 158 169 165 158 167 169 167 173 167 163 168 164 159 158 154 146 136 138 156 168 174 185 182 171 165 166 171 183 183 180 192 195 175 190 201 193 191 193 187 183 181 182 179 174 170 164 159 156 152 154 154 155 158 151 148 146 139 145 136 121 105 84 76 68 63 54
174 166 164 168 165 166 168 136 144 151 141 136 142 129 110 108 124 140 140 141 169 185 161 160 170 174 173 163 160 164 161 159 156 147 134 132 149 166 167 169 184 184 173 171 172 165 166 173 177 188 182 169 190 218 225 200 196 198 191 189 194 190 185 184 177 174 175 174 177 182 184 195 215 233 245 257 257 256 300 32 35 28 25 17 3
167 156 163 168 158 159 154 130 140 143 138 140 129 114 122 136 124 103 126 150 177 188 159 155 170 172 161 156 158 159 158 155 150 143 140 147 155 149 148 163 184 195 182 173 172 170 174 176 174 188 189 179 196 225 241 215 209 220 205 194 200 201 197 197 195 190 189 191 194 204 226 248 262 266 263 267 274 282 297 311 328 335 340 344 344
156 152 170 168 151 155 154 144 149 143 140 141 128 131 151 139 114 126 164 178 175 164 145 149 163 166 154 152 156 158 149 139 140 150 153 157 161 147 140 157 173 191 187 178 176 178 187 188 181 193 201 186 197 230 248 236 229 239 229 208 204 209 209 207 208 207 206 210 216 235 267 275 272 268 265 269 276 287 296 304 312 317 322 328 333
154 158 175 165 151 159 155 154 157 147 150 149 139 150 156 133 131 153 155 138 147 144 141 147 155 160 154 152 156 155 142 135 146 164 159 158 171 158 155 169 168 161 163 174 191 203 197 191 184 197 211 192 191 225 247 244 240 240 237 231 218 218 226 226 222 223 225 230 242 262 280 283 276 267 266 272 279 286 293 298 305 310 315 322 328
156 159 167 159 158 164 156 155 154 150 158 154 144 152 153 144 148 139 108 80 122 142 152 155 159 165 161 158 157 150 144 146 160 167 162 165 171 167 173 188 188 188 164 158 183 226 208 192 181 199 222 205 185 214 239 245 245 230 223 239 249 241 238 240 242 251 256 256 263 272 276 280 278 269 265 270 275 279 284 290 296 303 310 316 321
159 156 154 155 163 163 154 153 152 154 159 151 147 155 155 152 150 139 136 130 122 136 147 150 156 161 160 162 159 152 152 159 163 165 175 177 150 161 182 191 191 211 198 167 170 193 202 196 184 201 222 220 195 206 231 245 253 243 217 229 251 261 258 244 236 249 262 265 266 269 273 278 280 271 264 265 268 270 274 281 287 292 299 304 310
156 150 149 158 163 154 149 152 153 153 149 146 154 160 157 157 156 153 150 143 133 126 127 134 139 138 142 150 154 155 159 166 165 165 178 179 160 162 187 191 182 199 207 187 186 202 210 207 211 212 216 226 222 208 221 240 249 254 237 221 232 248 258 255 238 238 248 254 260 266 272 278 279 272 263 260 262 265 269 275 281 285 290 294 299
147 146 153 158 151 146 151 151 149 151 155 161 164 159 157 160 161 160 153 147 145 140 136 136 130 134 144 150 160 166 166 172 176 171 176 188 185 178 186 193 192 192 188 187 206 235 243 235 233 228 222 228 228 219 223 231 231 237 243 232 228 236 245 252 251 246 249 254 260 266 271 275 277 274 268 263 261 263 267 270 275 279 284 287 290
141 145 154 147 141 150 154 149 154 163 169 173 167 160 162 160 156 158 154 153 155 147 144 146 135 137 153 158 167 176 173 177 182 176 180 194 193 189 196 200 202 209 202 203 232 238 239 246 245 240 239 236 229 226 228 228 228 234 239 238 242 244 242 244 248 251 255 258 260 263 268 272 272 275 276 268 262 263 267 270 274 277 279 281 283
142 148 148 139 141 152 149 154 171 175 177 178 171 168 168 158 152 153 149 153 156 145 147 159 147 144 170 183 184 190 195 198 197 195 198 202 200 200 203 200 204 215 213 216 233 234 240 254 250 247 251 248 240 238 237 235 241 251 248 242 246 249 242 242 247 253 258 260 258 258 262 266 266 270 274 270 266 270 273 275 277 276 276 278 281
143 145 142 137 143 152 154 168 180 181 181 181 178 178 174 162 158 157 151 148 149 142 149 166 155 154 187 217 215 211 214 214 212 215 218 217 217 219 218 212 215 228 234 235 240 242 249 259 257 258 260 257 256 253 247 240 240 248 250 247 251 254 249 247 249 253 258 261 259 258 262 266 265 266 269 269 269 274 277 278 277 276 277 279 280
143 145 149 149 151 161 172 179 185 188 188 185 184 183 176 171 169 165 156 151 152 155 158 158 161 180 218 260 271 260 248 241 237 237 239 242 239 235 236 235 236 243 251 254 253 250 252 257 263 268 267 265 267 265 258 249 244 246 249 248 250 255 255 252 251 253 258 262 261 258 259 261 261 264 267 269 270 273 275 273 272 277 280 278 280
152 154 159 160 155 158 169 178 188 194 191 191 192 187 180 180 179 173 168 163 158 159 174 198 209 235 243 243 253 262 257 242 245 256 266 270 266 257 253 252 252 255 258 260 259 256 257 260 262 264 266 267 267 265 263 259 254 252 252 249 247 249 253 254 253 254 257 261 262 258 252 254 259 262 265 268 270 270 267 264 267 272 273 273 278
158 155 156 159 156 151 157 167 175 170 160 172 185 188 187 186 184 178 175 178 176 172 190 219 227 237 240 234 229 223 218 218 223 226 235 254 262 264 267 269 268 269 270 270 271 272 271 270 268 266 265 263 263 262 262 261 259 256 256 255 252 249 250 252 253 255 256 256 259 259 257 260 263 263 264 264 262 259 256 258 263 264 262 265 273
147 143 140 147 149 143 145 154 146 132 131 136 157 179 185 186 195 204 221 254 235 215 222 239 245 247 247 249 252 243 236 241 247 244 246 255 259 262 272 279 280 279 276 277 283 283 279 274 271 269 266 264 264 265 264 263 264 264 264 264 263 259 256 256 257 257 257 257 259 263 267 267 266 266 263 256 251 252 255 257 260 262 262 265 269
148 147 144 148 157 157 159 168 164 145 140 129 130 164 184 211 233 231 261 285 276 257 258 259 259 261 258 260 268 269 263 261 261 263 265 264 264 274 284 286 284 279 278 281 286 285 281 279 276 272 268 266 267 269 268 267 268 270 270 270 269 268 267 266 265 264 264 264 265 269 272 271 271 271 261 250 249 252 254 256 258 260 262 264 268
162 171 188 219 237 244 251 260 265 262 237 216 211 210 224 247 260 263 275 285 278 260 263 264 263 268 271 273 275 274 271 270 273 277 276 269 271 279 284 284 282 282 283 284 285 284 284 282 279 275 269 266 267 270 271 272 273 273 272 271 270 270 269 270 271 272 273 273 272 272 273 273 273 268 257 252 251 246 245 252 256 254 255 260 267
186 202 219 232 239 242 248 257 263 266 264 245 235 243 251 254 262 268 269 265 251 244 255 262 264 269 276 282 282 279 280 281 282 282 280 278 278 278 278 280 285 289 290 287 284 285 286 283 279 275 271 269 270 273 275 277 277 275 272 272 273 272 270 269 270 272 273 274 275 274 272 273 273 264 254 253 251 243 242 247 248 247 254 261 266
203 219 227 232 234 235 236 243 251 254 253 248 246 255 260 256 253 253 249 244 241 242 252 263 268 270 274 280 282 284 287 288 286 285 284 283 282 281 282 286 289 289 288 287 284 283 282 282 281 279 275 272 274 276 277 277 275 273 271 271 272 272 270 269 268 268 268 270 272 271 268 268 269 265 261 258 252 248 247 247 246 249 257 262 265